EW4921 Weather Reports


Display with metric or nautical units.
time (UTC)temp
F
wind
direction
speed
MPH
gust
MPH
rain 1hr
in
rain 24hr
in
rain mn
in
humidity
%
barometer
mb
20260903133525 53 1 1.0 1.0 0.00 0.00 0.00 90 1014.6
20260903133042 53 1 1.0 2.0 0.00 0.00 0.00 90 1014.6
20260903132524 53 117 0.0 2.0 0.00 0.00 0.00 90 1014.6
20260903132023 53 178 0.0 2.0 0.00 0.00 0.00 90 1014.6
20260903131545 53 46 1.0 2.0 0.00 0.00 0.00 90 1014.5
20260903131019 53 1 1.0 2.0 0.00 0.00 0.00 90 1014.5
20260903130541 53 1 1.0 2.0 0.00 0.00 0.00 89 1014.6
20260903130014 53 314 1.0 2.0 0.00 0.00 0.00 89 1014.5
20260903125555 53 46 1.0 1.0 0.00 0.00 0.00 89 1014.5
20260903125026 53 46 0.0 1.0 0.00 0.00 0.00 89 1014.4
20260903124523 53 46 0.0 1.0 0.00 0.00 0.00 89 1014.5
20260903124019 53 20 1.0 1.0 0.00 0.00 0.00 92 1014.5
20260903123520 53 295 0.0 1.0 0.00 0.00 0.00 89 1014.5
20260903123031 53 46 1.0 2.0 0.00 0.00 0.00 89 1014.4
20260903122532 53 13 0.0 2.0 0.00 0.00 0.00 89 1014.4
20260903122023 53 46 0.0 1.0 0.00 0.00 0.00 89 1014.6
20260903121520 53 28 0.0 1.0 0.00 0.00 0.00 89 1014.6
20260903121032 53 46 0.0 1.0 0.00 0.00 0.00 88 1014.6
20260903120558 53 295 0.0 1.0 0.00 0.00 0.00 88 1014.7
20260903120045 53 46 0.0 1.0 0.00 0.00 0.00 88 1014.7
20260903115538 54 89 0.0 1.0 0.00 0.00 0.00 88 1014.7
20260903115026 54 314 0.0 1.0 0.00 0.00 0.00 88 1014.7
20260903114545 54 28 0.0 1.0 0.00 0.00 0.00 88 1014.7
20260903114023 54 89 0.0 1.0 0.00 0.00 0.00 88 1014.8
20260903113524 54 28 1.0 1.0 0.00 0.00 0.00 88 1014.8
20260903113022 54 46 0.0 1.0 0.00 0.00 0.00 88 1014.7
20260903112524 54 46 0.0 2.0 0.00 0.00 0.00 87 1014.8
20260903112034 54 46 0.0 1.0 0.00 0.00 0.00 87 1014.8
20260903111531 54 28 0.0 1.0 0.00 0.00 0.00 87 1014.8
20260903111023 54 20 0.0 1.0 0.00 0.00 0.00 87 1014.9
20260903110549 54 28 0.0 2.0 0.00 0.00 0.00 87 1014.9
20260903110022 54 63 0.0 2.0 0.00 0.00 0.00 88 1014.9
20260903105545 54 63 0.0 2.0 0.00 0.00 0.00 87 1014.8
20260903105018 54 46 1.0 2.0 0.00 0.00 0.00 87 1014.9
20260903104539 54 46 0.0 2.0 0.00 0.00 0.00 87 1014.9
20260903104030 54 46 0.0 2.0 0.00 0.00 0.00 87 1015.0
20260903103533 54 1 1.0 2.0 0.00 0.00 0.00 87 1015.0
20260903103025 55 35 0.0 2.0 0.00 0.00 0.00 87 1015.0
20260903102527 55 108 0.0 2.0 0.00 0.00 0.00 87 1015.0
20260903102032 55 46 1.0 2.0 0.00 0.00 0.00 87 1015.0
20260903101535 55 46 0.0 2.0 0.00 0.00 0.00 87 1015.1
20260903101055 55 46 0.0 2.0 0.00 0.00 0.00 87 1015.0
20260903100559 55 15 1.0 2.0 0.00 0.00 0.00 87 1015.0
20260903100023 55 344 0.0 2.0 0.00 0.00 0.00 87 1015.0
20260903095519 55 1 0.0 2.0 0.00 0.00 0.00 87 1015.1
20260903095033 55 89 1.0 2.0 0.00 0.00 0.00 87 1015.1
20260903094532 55 35 1.0 2.0 0.00 0.00 0.00 87 1015.2
20260903094024 56 20 1.0 1.0 0.00 0.00 0.00 87 1015.1
20260903093539 56 1 1.0 2.0 0.00 0.00 0.00 87 1015.2
20260903093045 56 46 0.0 2.0 0.00 0.00 0.00 87 1015.3
20260903092526 56 331 0.0 1.0 0.00 0.00 0.00 87 1015.3
20260903092024 56 340 0.0 1.0 0.00 0.00 0.00 87 1015.4
20260903091545 56 1 0.0 1.0 0.00 0.00 0.00 86 1015.3
20260903091022 56 46 0.0 1.0 0.00 0.00 0.00 86 1015.4
20260903090614 56 1 0.0 1.0 0.00 0.00 0.00 86 1015.4
20260903090016 56 1 0.0 1.0 0.00 0.00 0.00 86 1015.4
20260903085538 56 46 0.0 1.0 0.00 0.00 0.00 86 1015.4
20260903085029 56 222 0.0 1.0 0.00 0.00 0.00 86 1015.4
20260903084521 56 269 0.0 2.0 0.00 0.00 0.00 86 1015.4
20260903084015 56 135 0.0 2.0 0.00 0.00 0.00 86 1015.5
20260903083531 57 331 0.0 2.0 0.00 0.00 0.00 86 1015.6
20260903083022 57 28 0.0 2.0 0.00 0.00 0.00 86 1015.5
20260903082524 57 89 0.0 1.0 0.00 0.00 0.00 86 1015.5
20260903082022 57 135 0.0 1.0 0.00 0.00 0.00 86 1015.5
20260903081523 57 63 0.0 1.0 0.00 0.00 0.00 86 1015.5
20260903081035 57 1 0.0 2.0 0.00 0.00 0.00 86 1015.5
20260903080555 57 331 0.0 2.0 0.00 0.00 0.00 86 1015.4
20260903080019 57 46 0.0 2.0 0.00 0.00 0.00 86 1015.4
20260903075518 58 222 0.0 2.0 0.00 0.00 0.00 86 1015.4
20260903075015 58 15 0.0 2.0 0.00 0.00 0.00 86 1015.5
20260903074556 58 108 0.0 1.0 0.00 0.00 0.00 86 1015.5
20260903074026 58 1 0.0 2.0 0.00 0.00 0.00 86 1015.5
20260903073525 58 1 1.0 2.0 0.00 0.00 0.00 86 1015.6
20260903073023 58 63 1.0 3.0 0.00 0.00 0.00 86 1015.5
20260903072517 58 35 1.0 2.0 0.00 0.00 0.00 86 1015.5
20260903072015 58 1 1.0 2.0 0.00 0.00 0.00 86 1015.5
20260903071538 58 340 1.0 2.0 0.00 0.00 0.00 86 1015.4
20260903071029 58 344 1.0 2.0 0.00 0.00 0.00 86 1015.5
20260903070546 58 28 1.0 2.0 0.00 0.00 0.00 86 1015.5
20260903070040 58 46 1.0 2.0 0.00 0.00 0.00 86 1015.5
20260903065535 59 63 0.0 2.0 0.00 0.00 0.00 85 1015.4
20260903065049 59 46 0.0 2.0 0.00 0.00 0.00 85 1015.4
20260903064522 59 20 0.0 2.0 0.00 0.00 0.00 85 1015.4
20260903064029 59 1 1.0 3.0 0.00 0.00 0.00 85 1015.4
20260903063531 59 336 2.0 3.0 0.00 0.00 0.00 85 1015.4
20260903063044 59 46 1.0 2.0 0.00 0.00 0.00 85 1015.4
20260903062524 59 1 1.0 2.0 0.00 0.00 0.00 84 1015.4
20260903062043 59 46 0.0 1.0 0.00 0.00 0.00 84 1015.4
20260903061520 59 1 1.0 1.0 0.00 0.00 0.00 84 1015.4
20260903061031 59 89 0.0 1.0 0.00 0.00 0.00 83 1015.3
20260903060627 59 46 0.0 1.0 0.00 0.00 0.00 83 1015.3
20260903060052 60 46 0.0 1.0 0.00 0.00 0.00 83 1015.3
20260903055553 60 28 0.0 1.0 0.00 0.00 0.00 83 1015.4
20260903055019 60 89 0.0 1.0 0.00 0.00 0.00 83 1015.4
20260903054515 60 89 0.0 1.0 0.00 0.00 0.00 83 1015.4
20260903054033 60 135 0.0 1.0 0.00 0.00 0.00 83 1015.3
20260903053535 61 46 0.0 1.0 0.00 0.00 0.00 82 1015.4
20260903053044 61 1 0.0 1.0 0.00 0.00 0.00 82 1015.4
20260903052520 61 344 0.0 1.0 0.00 0.00 0.00 82 1015.5
20260903052018 61 331 0.0 1.0 0.00 0.00 0.00 81 1015.5
20260903051519 61 331 0.0 1.0 0.00 0.00 0.00 81 1015.5
20260903051028 62 89 0.0 1.0 0.00 0.00 0.00 81 1015.5
20260903050624 62 46 0.0 1.0 0.00 0.00 0.00 80 1015.5
20260903050027 62 178 0.0 2.0 0.00 0.00 0.00 80 1015.4
20260903045523 62 46 0.0 2.0 0.00 0.00 0.00 80 1015.6
20260903045021 62 178 0.0 1.0 0.00 0.00 0.00 80 1015.6
20260903044515 63 135 0.0 1.0 0.00 0.00 0.00 79 1015.6
20260903044015 63 46 0.0 1.0 0.00 0.00 0.00 78 1015.6
20260903043536 63 240 0.0 1.0 0.00 0.00 0.00 77 1015.5
20260903043024 63 89 0.0 2.0 0.00 0.00 0.00 76 1015.6
20260903042523 63 89 0.0 2.0 0.00 0.00 0.00 76 1015.5
20260903042043 64 331 0.0 1.0 0.00 0.00 0.00 76 1015.5
20260903041525 64 46 0.0 1.0 0.00 0.00 0.00 75 1015.5
20260903041017 64 269 0.0 1.0 0.00 0.00 0.00 74 1015.5
20260903040611 64 240 0.0 1.0 0.00 0.00 0.00 73 1015.5
20260903040037 64 46 0.0 1.0 0.00 0.00 0.00 73 1015.5
20260903035559 65 314 0.0 2.0 0.00 0.00 0.00 70 1015.4
20260903035054 65 135 1.0 2.0 0.00 0.00 0.00 69 1015.4
20260903034535 65 314 0.0 2.0 0.00 0.00 0.00 68 1015.3
20260903034025 65 324 0.0 2.0 0.00 0.00 0.00 68 1015.3
20260903033541 65 314 0.0 2.0 0.00 0.00 0.00 66 1015.2
20260903033018 66 46 0.0 2.0 0.00 0.00 0.00 66 1015.2
20260903032537 66 1 0.0 2.0 0.00 0.00 0.00 65 1015.1
20260903032027 66 46 0.0 2.0 0.00 0.00 0.00 65 1015.1
20260903031521 66 178 0.0 2.0 0.00 0.00 0.00 63 1015.0
20260903031029 67 89 1.0 3.0 0.00 0.00 0.00 62 1015.0
20260903030553 67 117 1.0 3.0 0.00 0.00 0.00 62 1015.0
20260903030026 67 178 1.0 3.0 0.00 0.00 0.00 62 1015.0
20260903025520 68 46 1.0 2.0 0.00 0.00 0.00 61 1015.1
20260903025033 68 56 0.0 2.0 0.00 0.00 0.00 60 1015.0
20260903024533 68 46 0.0 4.0 0.00 0.00 0.00 60 1015.0
20260903024040 68 314 1.0 4.0 0.00 0.00 0.00 59 1015.2
20260903023519 69 295 0.0 3.0 0.00 0.00 0.00 59 1015.1
20260903023031 69 240 2.0 3.0 0.00 0.00 0.00 58 1015.1
20260903022533 69 46 1.0 3.0 0.00 0.00 0.00 57 1015.1
20260903022044 70 324 1.0 5.0 0.00 0.00 0.00 57 1015.1
20260903021523 70 253 2.0 5.0 0.00 0.00 0.00 57 1015.1
20260903021041 70 46 1.0 4.0 0.00 0.00 0.00 55 1015.2
20260903020544 70 103 1.0 4.0 0.00 0.00 0.00 54 1015.2
20260903020050 71 121 2.0 4.0 0.00 0.00 0.00 54 1015.1
20260903015533 71 326 2.0 5.0 0.00 0.00 0.00 54 1015.1
20260903015039 71 319 1.0 4.0 0.00 0.00 0.00 54 1015.1
20260903014520 72 46 1.0 6.0 0.00 0.00 0.00 53 1015.2
20260903014017 72 46 2.0 6.0 0.00 0.00 0.00 54 1015.2
20260903013539 72 56 2.0 5.0 0.00 0.00 0.00 55 1015.2
20260903013029 72 89 1.0 6.0 0.00 0.00 0.00 54 1015.2
20260903012532 73 314 2.0 6.0 0.00 0.00 0.00 53 1015.2
20260903012101 73 306 3.0 6.0 0.00 0.00 0.00 53 1015.2
20260903011556 73 346 2.0 6.0 0.00 0.00 0.00 53 1015.2
20260903011028 74 223 2.0 5.0 0.00 0.00 0.00 53 1015.2
20260903010602 74 222 2.0 7.0 0.00 0.00 0.00 53 1015.2
20260903010026 74 46 2.0 6.0 0.00 0.00 0.00 51 1015.2
20260903005517 74 1 2.0 7.0 0.00 0.00 0.00 50 1015.1
20260903005029 74 46 3.0 7.0 0.00 0.00 0.00 49 1015.1
20260903004532 75 302 2.0 9.0 0.00 0.00 0.00 48 1015.2
20260903004024 75 303 3.0 8.0 0.00 0.00 0.00 46 1015.1
20260903003526 75 328 3.0 6.0 0.00 0.00 0.00 45 1015.2
20260903003021 76 257 3.0 8.0 0.00 0.00 0.00 44 1015.2
20260903002520 76 293 3.0 8.0 0.00 0.00 0.00 41 1015.1
20260903002035 76 1 2.0 6.0 0.00 0.00 0.00 39 1015.2
20260903001537 77 89 2.0 5.0 0.00 0.00 0.00 39 1015.2
20260903001027 77 160 2.0 7.0 0.00 0.00 0.00 43 1015.2
20260903000551 77 89 2.0 12.0 0.00 0.00 0.00 45 1015.2
20260903000018 77 236 3.0 12.0 0.00 0.00 0.00 46 1015.2
20260902235519 77 338 3.0 8.0 0.00 0.00 0.00 48 1015.2
20260902235031 77 327 2.0 6.0 0.00 0.00 0.00 49 1015.2
20260902234532 78 318 2.0 8.0 0.00 0.00 0.00 49 1015.3
20260902234024 78 240 3.0 9.0 0.00 0.00 0.00 48 1015.3
20260902233524 78 315 3.0 9.0 0.00 0.00 0.00 48 1015.3
20260902233033 79 295 2.0 5.0 0.00 0.00 0.00 50 1015.3
20260902232534 78 163 2.0 12.0 0.00 0.00 0.00 51 1015.3
20260902232025 78 260 2.0 12.0 0.00 0.00 0.00 51 1015.4
20260902231525 78 338 3.0 9.0 0.00 0.00 0.00 52 1015.4
20260902231015 78 338 4.0 10.0 0.00 0.00 0.00 53 1015.4
20260902230558 77 240 4.0 10.0 0.00 0.00 0.00 53 1015.4
20260902230040 78 310 3.0 9.0 0.00 0.00 0.00 53 1015.5
20260902225517 79 135 4.0 9.0 0.00 0.00 0.00 51 1015.5
20260902225015 79 245 3.0 10.0 0.00 0.00 0.00 51 1015.4
20260902224519 78 53 2.0 10.0 0.00 0.00 0.00 54 1015.4
20260902224032 79 307 3.0 7.0 0.00 0.00 0.00 54 1015.5
20260902223532 78 311 2.0 7.0 0.00 0.00 0.00 53 1015.5
20260902223018 79 334 4.0 10.0 0.00 0.00 0.00 53 1015.6
20260902222541 79 322 4.0 10.0 0.00 0.00 0.00 54 1015.6
20260902222031 79 350 2.0 11.0 0.00 0.00 0.00 54 1015.6
20260902221534 79 321 3.0 11.0 0.00 0.00 0.00 54 1015.6
20260902221025 80 331 3.0 11.0 0.00 0.00 0.00 53 1015.6
20260902220549 80 326 4.0 8.0 0.00 0.00 0.00 53 1015.7
20260902220032 80 178 3.0 8.0 0.00 0.00 0.00 55 1015.7
20260902215533 80 240 3.0 8.0 0.00 0.00 0.00 56 1015.8
20260902215024 79 257 3.0 7.0 0.00 0.00 0.00 55 1015.8
20260902214524 79 20 3.0 9.0 0.00 0.00 0.00 56 1015.8
20260902214022 80 236 2.0 9.0 0.00 0.00 0.00 57 1015.9
20260902213523 80 324 2.0 11.0 0.00 0.00 0.00 57 1015.9
20260902213017 79 283 2.0 7.0 0.00 0.00 0.00 57 1016.0
20260902212538 79 170 3.0 7.0 0.00 0.00 0.00 57 1016.0
20260902212014 78 295 2.0 9.0 0.00 0.00 0.00 60 1016.0
20260902211536 78 295 4.0 10.0 0.00 0.00 0.00 58 1016.1
20260902211049 78 345 4.0 10.0 0.00 0.00 0.00 57 1016.1
20260902210548 79 327 2.0 8.0 0.00 0.00 0.00 57 1016.1
20260902210033 79 135 3.0 10.0 0.00 0.00 0.00 57 1016.2
20260902205533 79 203 4.0 10.0 0.00 0.00 0.00 57 1016.1
20260902205026 79 314 3.0 8.0 0.00 0.00 0.00 57 1016.1
20260902204526 79 324 3.0 8.0 0.00 0.00 0.00 58 1016.2
20260902204018 78 231 2.0 10.0 0.00 0.00 0.00 56 1016.2
20260902203533 78 324 3.0 10.0 0.00 0.00 0.00 57 1016.2
20260902203023 78 297 3.0 8.0 0.00 0.00 0.00 57 1016.3
20260902202520 79 314 3.0 9.0 0.00 0.00 0.00 57 1016.2
20260902202033 78 350 3.0 9.0 0.00 0.00 0.00 57 1016.2
20260902201534 79 216 3.0 10.0 0.00 0.00 0.00 56 1016.3
20260902201022 78 300 4.0 11.0 0.00 0.00 0.00 58 1016.4
20260902200546 79 178 4.0 11.0 0.00 0.00 0.00 56 1016.3
20260902200030 79 240 1.0 11.0 0.00 0.00 0.00 57 1016.4
20260902195534 79 300 3.0 11.0 0.00 0.00 0.00 55 1016.5
20260902195025 79 321 5.0 9.0 0.00 0.00 0.00 55 1016.6
20260902194526 80 79 3.0 9.0 0.00 0.00 0.00 55 1016.6
20260902194034 80 13 3.0 9.0 0.00 0.00 0.00 53 1016.6
20260902193535 80 226 2.0 9.0 0.00 0.00 0.00 53 1016.6
20260902193022 80 250 2.0 8.0 0.00 0.00 0.00 52 1016.6
20260902192525 80 317 3.0 9.0 0.00 0.00 0.00 50 1016.7
20260902192036 80 56 2.0 9.0 0.00 0.00 0.00 49 1016.7
20260902191554 80 221 3.0 8.0 0.00 0.00 0.00 48 1016.7
20260902191022 81 185 3.0 8.0 0.00 0.00 0.00 46 1016.7
20260902190544 80 220 4.0 8.0 0.00 0.00 0.00 42 1016.7
20260902190017 80 220 5.0 8.0 0.00 0.00 0.00 45 1016.9
20260902185558 79 46 2.0 8.0 0.00 0.00 0.00 49 1016.9
20260902185028 79 190 3.0 9.0 0.00 0.00 0.00 49 1016.9
20260902184538 78 290 2.0 6.0 0.00 0.00 0.00 48 1016.8
20260902184028 78 215 3.0 6.0 0.00 0.00 0.00 51 1016.9
20260902183522 77 314 1.0 6.0 0.00 0.00 0.00 51 1016.9
20260902183021 78 314 2.0 8.0 0.00 0.00 0.00 49 1017.0
20260902182520 77 213 3.0 8.0 0.00 0.00 0.00 51 1017.0
20260902182048 77 314 2.0 5.0 0.00 0.00 0.00 51 1017.1
20260902181528 77 222 3.0 6.0 0.00 0.00 0.00 51 1017.2
20260902181038 77 56 2.0 6.0 0.00 0.00 0.00 52 1017.2
20260902180559 76 178 3.0 7.0 0.00 0.00 0.00 54 1017.2
20260902180024 75 178 2.0 5.0 0.00 0.00 0.00 54 1017.3
20260902175540 75 243 2.0 5.0 0.00 0.00 0.00 57 1017.3
20260902175030 74 231 2.0 5.0 0.00 0.00 0.00 56 1017.2
20260902174553 75 220 2.0 6.0 0.00 0.00 0.00 57 1017.3
20260902174024 74 229 2.0 8.0 0.00 0.00 0.00 59 1017.3
20260902173524 74 222 1.0 4.0 0.00 0.00 0.00 58 1017.2
20260902173035 73 314 1.0 4.0 0.00 0.00 0.00 59 1017.2
20260902172537 73 142 1.0 4.0 0.00 0.00 0.00 60 1017.3
20260902172016 73 127 1.0 6.0 0.00 0.00 0.00 59 1017.3
20260902171536 73 222 2.0 6.0 0.00 0.00 0.00 59 1017.2
20260902171027 72 187 2.0 5.0 0.00 0.00 0.00 62 1017.2
20260902170548 72 46 2.0 7.0 0.00 0.00 0.00 61 1017.2
20260902170018 72 162 2.0 7.0 0.00 0.00 0.00 61 1017.2
20260902165540 71 1 2.0 5.0 0.00 0.00 0.00 64 1017.2
20260902165016 71 56 2.0 6.0 0.00 0.00 0.00 63 1017.2
20260902164559 71 197 3.0 6.0 0.00 0.00 0.00 64 1017.0
20260902164024 71 145 2.0 5.0 0.00 0.00 0.00 67 1017.0
20260902163544 70 126 2.0 5.0 0.00 0.00 0.00 66 1017.0
20260902163020 69 159 1.0 5.0 0.00 0.00 0.00 70 1017.0
20260902162540 69 130 2.0 4.0 0.00 0.00 0.00 72 1017.1
20260902162051 68 245 2.0 4.0 0.00 0.00 0.00 72 1017.1
20260902161524 67 197 2.0 4.0 0.00 0.00 0.00 75 1017.0
20260902161021 66 206 1.0 4.0 0.00 0.00 0.00 76 1017.0
20260902160543 65 89 2.0 4.0 0.00 0.00 0.00 79 1017.0
20260902160016 64 218 1.0 4.0 0.00 0.00 0.00 85 1017.1
20260902155555 63 124 2.0 3.0 0.00 0.00 0.00 92 1017.1
20260902155025 62 46 1.0 2.0 0.00 0.00 0.00 94 1017.2
20260902154542 61 145 1.0 2.0 0.00 0.00 0.00 94 1017.2
20260902154033 60 135 1.0 2.0 0.00 0.00 0.00 94 1017.2
20260902153534 59 53 1.0 2.0 0.00 0.00 0.00 94 1017.1
20260902153045 58 89 1.0 2.0 0.00 0.00 0.00 94 1017.1
20260902152540 57 89 1.0 2.0 0.00 0.00 0.00 94 1017.1
20260902152017 56 127 1.0 2.0 0.00 0.00 0.00 94 1017.1
20260902151539 55 135 1.0 2.0 0.00 0.00 0.00 93 1017.1
20260902151030 54 117 1.0 2.0 0.00 0.00 0.00 93 1017.1
20260902150626 53 152 0.0 1.0 0.00 0.00 0.00 93 1017.1
20260902150028 53 135 0.0 2.0 0.00 0.00 0.00 93 1017.1
20260902145518 53 152 0.0 2.0 0.00 0.00 0.00 93 1017.1
20260902145029 52 63 1.0 1.0 0.00 0.00 0.00 93 1017.1
20260902144532 52 324 0.0 2.0 0.00 0.00 0.00 93 1017.2
20260902144024 52 135 1.0 2.0 0.00 0.00 0.00 93 1017.1
20260902143524 52 89 0.0 1.0 0.00 0.00 0.00 93 1017.1
20260902143023 52 89 0.0 1.0 0.00 0.00 0.00 92 1017.1
20260902142521 51 63 0.0 1.0 0.00 0.00 0.00 92 1017.2
20260902142019 51 117 0.0 1.0 0.00 0.00 0.00 92 1017.0
20260902141519 51 135 0.0 1.0 0.00 0.00 0.00 92 1016.8
20260902141030 51 135 0.0 1.0 0.00 0.00 0.00 92 1016.7
20260902140603 51 28 0.0 1.0 0.00 0.00 0.00 92 1016.8
20260902140029 51 46 0.0 1.0 0.00 0.00 0.00 92 1016.7
20260902135525 51 63 0.0 1.0 0.00 0.00 0.00 92 1016.7
20260902135024 51 46 0.0 1.0 0.00 0.00 0.00 92 1016.6
20260902134525 51 89 0.0 2.0 0.00 0.00 0.00 92 1016.5
20260902134023 51 28 1.0 2.0 0.00 0.00 0.00 92 1016.5